[[{"header":{"parameterUnit":"m.s-1","parameterCategory":1,"la1":30.2991,"la2":30.254,"lo1":-89.0895,"lo2":-89.0444,"dy":0.0017,"dx":0.0017,"nx":28,"ny":28,"refTime":"2023-08-23T21:00:00:Z","depth":0,"parameterNumber":2,"parameterNumberName":"U-component_of_WINDS"},"data":[0,0,0,0,0,0,0,0,0,0,0,0,0,0,0,0,0,0,0,0,0,0,0,0,0,0,0,0,0,0,0,0,0,0,0,0,0,0,0,0,0,0,0,0,0,0,0,0,0,0,0,0,0,0,0,0,0,0,0.4387,0.4387,0,0.4467,0.4467,0.4468,0.4494,0.4493,0.4493,0.4493,0.4574,0.4576,0.4578,0,0,0,0,0,0,0,0,0,0,0,0,0,0.4251,0.4254,0.4386,0.4387,0.4388,0.4466,0.4467,0.4469,0.4494,0.4493,0.4493,0.4492,0.4573,0.4576,0.4579,0,0,0,0,0,0,0,0,0,0,0,0,0,0.4319,0.4255,0.4386,0.441,0.4413,0.4466,0.4468,0.4469,0.4494,0.4493,0.4493,0.4492,0.4572,0.4575,0.4579,0.4613,0,0,0.4591,0.4592,0,0,0,0,0,0,0,0,0.4315,0.4324,0.4406,0.4409,0.4412,0.447,0.445,0.4517,0.4494,0.4463,0.4493,0.4492,0.4539,0.4546,0.4562,0.4617,0.4621,0.4591,0.4593,0.4595,0.4596,0,0,0,0,0,0,0,0.431,0.432,0.4418,0.4407,0.4411,0.4416,0.4425,0.4463,0.4503,0.4466,0.4468,0.4477,0.4541,0.4558,0.4564,0.4622,0.4591,0.4594,0.4596,0.4598,0.4705,0.4705,0,0,0,0,0,0,0.4302,0.4316,0.4416,0.4421,0.4361,0.4419,0.4429,0.4452,0.4503,0.451,0.4478,0.4478,0.4552,0.456,0.4567,0.4608,0.4595,0.4598,0.46,0.4704,0.4705,0.4706,0,0,0,0,0,0,0.4299,0.431,0.4412,0.4369,0.4382,0.4422,0.4447,0.4454,0.4471,0.4512,0.4519,0.4488,0.4552,0.4562,0.4601,0.4612,0.46,0.4603,0.4703,0.4704,0.4705,0.4692,0,0,0,0,0,0,0.4295,0.4309,0.4324,0.4369,0.4385,0.4446,0.4448,0.4456,0.4478,0.4479,0.4524,0.453,0.4552,0.4595,0.4604,0.4616,0.4606,0.4703,0.4704,0.4705,0.4692,0.4693,0.4693,0,0,0,0,0,0.429,0.4318,0.4324,0.4336,0.4404,0.4447,0.4455,0.4481,0.4478,0.4492,0.4518,0.4529,0.4608,0.4599,0.461,0.4623,0.4702,0.4704,0.4705,0.4692,0.4693,0.4693,0,0,0,0,0,0,0.4273,0.4324,0.4332,0.4376,0.4406,0.4451,0.447,0.4481,0.4513,0.4513,0.4542,0.4552,0.4588,0.4609,0.4598,0.4657,0.4656,0.4659,0.4642,0.4643,0.4644,0.4638,0.4609,0,0,0,0,0,0.4274,0.4306,0.4348,0.4382,0.4397,0.4431,0.445,0.4466,0.45,0.4513,0.4542,0.4573,0.4604,0.4625,0.4656,0.4694,0.4703,0.4709,0.4709,0.4709,0.4712,0.4731,0.4733,0.471,0.471,0.471,0,0,0.4278,0.4309,0.4328,0.438,0.4406,0.4436,0.4442,0.4475,0.4497,0.4518,0.4556,0.4578,0.4614,0.4652,0.467,0.4671,0.472,0.4711,0.4711,0.4714,0.4733,0.4735,0.4737,0.4711,0.4711,0.471,0,0,0.4299,0.4327,0.4357,0.4382,0.4421,0.4442,0.4449,0.4491,0.4506,0.4545,0.456,0.4586,0.4641,0.4665,0.4685,0.471,0.4721,0.472,0.4723,0.4741,0.4743,0.4745,0.4753,0.4755,0.4722,0.4722,0.4722,0,0.4298,0.4346,0.4371,0.4402,0.4423,0.4442,0.4472,0.4495,0.4542,0.4555,0.4555,0.4622,0.4648,0.469,0.4696,0.4712,0.4719,0.4715,0.4741,0.4743,0.4745,0.4753,0.4755,0.4722,0.4722,0.4722,0.4722,0,0.4341,0.4374,0.4393,0.4437,0.446,0.4491,0.4519,0.4539,0.4552,0.4572,0.461,0.4641,0.4678,0.4689,0.4702,0.4732,0.4731,0.4735,0.4735,0.4746,0.4754,0.4757,0.4721,0.4721,0.4721,0.4721,0,0,0.4357,0.4412,0.4419,0.4437,0.448,0.4505,0.4534,0.457,0.4586,0.4616,0.464,0.4684,0.4687,0.4709,0.4725,0.4741,0.4756,0.4743,0.4744,0.4744,0.4789,0.4785,0.4788,0.4763,0.4764,0.4764,0.4785,0,0.4383,0.4438,0.4459,0.4503,0.4532,0.4548,0.4573,0.4601,0.462,0.4646,0.4666,0.4697,0.4699,0.4712,0.4729,0.4751,0.4766,0.475,0.4785,0.4786,0.4776,0.4793,0.479,0.4809,0.4789,0.4789,0.479,0,0.4421,0.4451,0.4498,0.4533,0.4546,0.4569,0.4602,0.4627,0.4657,0.4669,0.4692,0.4706,0.4735,0.4731,0.4771,0.4759,0.4774,0.4787,0.4788,0.4793,0.4789,0.4797,0.4816,0.4818,0.4795,0.4794,0.4794,0,0.4426,0.4478,0.4512,0.4528,0.4571,0.4586,0.4604,0.4634,0.4653,0.4681,0.4693,0.4724,0.474,0.4763,0.4784,0.478,0.4821,0.482,0.4831,0.483,0.484,0.4839,0.486,0.4849,0.4849,0.4849,0.4849,0,0.4453,0.448,0.4514,0.4535,0.4565,0.4589,0.4617,0.4637,0.4662,0.4686,0.4701,0.4723,0.4749,0.4773,0.479,0.4818,0.4826,0.4836,0.484,0.4835,0.4833,0.4845,0.4845,0.485,0.485,0.4849,0.4849,0,0.4464,0.4488,0.4526,0.4563,0.4572,0.4593,0.4623,0.4643,0.4661,0.469,0.4699,0.4727,0.4756,0.4779,0.4817,0.4827,0.4857,0.4862,0.4847,0.485,0.4859,0.4858,0.4889,0.4894,0.4879,0.488,0.488,0,0.448,0.4501,0.4539,0.4556,0.4574,0.4601,0.462,0.4643,0.4662,0.4695,0.471,0.474,0.4765,0.481,0.4833,0.4861,0.4867,0.4875,0.4871,0.4864,0.4866,0.4864,0.4866,0.4876,0.4876,0.4876,0.4876,0,0.4504,0.4514,0.4541,0.4572,0.4594,0.4619,0.4644,0.4656,0.4683,0.4703,0.4732,0.4752,0.4789,0.4817,0.4847,0.4865,0.4874,0.4877,0.4881,0.4876,0.4866,0.4871,0.4848,0.4877,0.4877,0.4877,0.4877,0.4877,0.4517,0.4536,0.4565,0.4594,0.4615,0.4637,0.4657,0.4677,0.4702,0.4735,0.4746,0.4776,0.4802,0.4843,0.486,0.4882,0.4883,0.4889,0.489,0.4891,0.489,0.4862,0.4888,0.4888,0.4888,0.4888,0.4888,0,0.4542,0.4561,0.4587,0.4621,0.4643,0.465,0.4677,0.4695,0.4721,0.4745,0.4768,0.4801,0.4827,0.4852,0.4879,0.4892,0.4897,0.4899,0.4898,0.4901,0.4889,0.4882,0.4894,0.4894,0.4894,0.4894,0.4894,0.4894,0.4557,0.4588,0.4601,0.4642,0.466,0.469,0.4705,0.4724,0.4743,0.4779,0.4801,0.4817,0.484,0.4869,0.4893,0.4899,0.4908,0.4908,0.4916,0.4904,0.4903,0.4902,0.4896,0.491,0.491,0.4927,0.4927,0.4927]},{"header":{"parameterUnit":"m.s-1","parameterCategory":1,"la1":30.2991,"la2":30.254,"lo1":-89.0895,"lo2":-89.0444,"dy":0.0017,"dx":0.0017,"nx":28,"ny":28,"refTime":"2023-08-23T21:00:00:Z","depth":0,"parameterNumber":3,"parameterNumberName":"V-component_of_WINDS"},"data":[0,0,0,0,0,0,0,0,0,0,0,0,0,0,0,0,0,0,0,0,0,0,0,0,0,0,0,0,0,0,0,0,0,0,0,0,0,0,0,0,0,0,0,0,0,0,0,0,0,0,0,0,0,0,0,0,0,0,3.5304,3.5305,0,3.531,3.531,3.531,3.5344,3.5345,3.5346,3.5347,3.5349,3.5348,3.5347,0,0,0,0,0,0,0,0,0,0,0,0,0,3.5321,3.532,3.5304,3.5305,3.5305,3.531,3.531,3.531,3.5344,3.5345,3.5346,3.5347,3.5349,3.5348,3.5347,0,0,0,0,0,0,0,0,0,0,0,0,0,3.5318,3.532,3.5304,3.5322,3.5324,3.531,3.531,3.531,3.5344,3.5345,3.5346,3.5347,3.5349,3.5348,3.5347,3.5315,0,0,3.5344,3.5343,0,0,0,0,0,0,0,0,3.5319,3.5318,3.532,3.5321,3.5323,3.5328,3.5316,3.5312,3.5343,3.5336,3.5347,3.5348,3.534,3.534,3.5338,3.5315,3.5315,3.5344,3.5343,3.5342,3.5342,0,0,0,0,0,0,0,3.5319,3.5318,3.5306,3.532,3.5322,3.5329,3.533,3.5316,3.5331,3.5337,3.5339,3.534,3.5341,3.5339,3.5338,3.5315,3.5344,3.5343,3.5342,3.5341,3.5265,3.5264,0,0,0,0,0,0,3.5317,3.5318,3.5306,3.5307,3.5324,3.5328,3.5329,3.5325,3.5331,3.5334,3.5339,3.5341,3.534,3.534,3.5339,3.53,3.5342,3.5341,3.5341,3.5266,3.5265,3.5263,0,0,0,0,0,0,3.5317,3.5315,3.5306,3.5313,3.5312,3.5326,3.5321,3.5324,3.5322,3.5333,3.5335,3.5334,3.5341,3.534,3.5321,3.5301,3.5341,3.534,3.5268,3.5266,3.5264,3.5224,0,0,0,0,0,0,3.5317,3.5315,3.5304,3.5312,3.5312,3.5289,3.532,3.5323,3.532,3.5324,3.5329,3.5331,3.5342,3.5322,3.532,3.53,3.5339,3.527,3.5267,3.5265,3.5227,3.5221,3.5216,0,0,0,0,0,3.5318,3.5292,3.5303,3.5302,3.5298,3.5288,3.5287,3.5302,3.5319,3.5307,3.5314,3.533,3.5304,3.532,3.5317,3.5297,3.5271,3.5268,3.5265,3.523,3.5222,3.5216,0,0,0,0,0,0,3.528,3.5293,3.5306,3.5283,3.5284,3.5293,3.5279,3.5294,3.5289,3.5292,3.531,3.5311,3.5288,3.5291,3.5309,3.5266,3.529,3.5287,3.5265,3.5258,3.5252,3.525,3.5338,0,0,0,0,0,3.5269,3.526,3.5272,3.525,3.5251,3.5265,3.5261,3.5272,3.5274,3.5274,3.5279,3.5279,3.5271,3.5265,3.5258,3.5229,3.5229,3.5214,3.5208,3.5203,3.5199,3.5182,3.5175,3.5253,3.5253,3.5253,0,0,3.5246,3.5252,3.5245,3.5243,3.5245,3.5234,3.5265,3.5252,3.5244,3.5272,3.5253,3.5257,3.5258,3.5233,3.5223,3.5235,3.5178,3.5199,3.5195,3.5193,3.5178,3.5171,3.5164,3.5251,3.5251,3.5252,0,0,3.5197,3.5203,3.5184,3.5186,3.519,3.5199,3.5195,3.5203,3.5206,3.5189,3.5209,3.5199,3.5185,3.5184,3.5182,3.5134,3.5149,3.5132,3.51,3.5084,3.5078,3.5072,3.5053,3.5046,3.5128,3.5128,3.5128,0,3.5168,3.5153,3.5172,3.5159,3.5156,3.5183,3.5163,3.5164,3.5164,3.5162,3.5176,3.5158,3.5161,3.5135,3.5124,3.5122,3.5116,3.513,3.5077,3.5072,3.5067,3.5049,3.5042,3.5126,3.5126,3.5126,3.5126,0,3.5116,3.5106,3.509,3.5091,3.5087,3.5071,3.5086,3.508,3.5092,3.51,3.5081,3.5085,3.5079,3.5074,3.5086,3.505,3.5057,3.5074,3.5099,3.5057,3.504,3.5034,3.5122,3.5123,3.5124,3.5124,0,0,3.5041,3.5054,3.5048,3.5048,3.5054,3.5046,3.5031,3.5026,3.5019,3.5019,3.5005,3.4993,3.5008,3.5006,3.5018,3.5004,3.4963,3.5022,3.5022,3.5009,3.4922,3.4907,3.4899,3.4974,3.4973,3.4972,3.4921,0,3.4994,3.4968,3.4985,3.4957,3.4946,3.4972,3.4958,3.496,3.4967,3.4958,3.4966,3.4956,3.4979,3.4977,3.4964,3.4971,3.4945,3.4975,3.4959,3.4958,3.4955,3.4891,3.4875,3.4827,3.4915,3.4914,3.4913,0,3.4934,3.4932,3.4902,3.491,3.4907,3.4894,3.489,3.4883,3.4885,3.4891,3.4889,3.4904,3.4888,3.4914,3.4891,3.4911,3.4905,3.4908,3.4906,3.4903,3.4931,3.4883,3.4812,3.4803,3.4903,3.4904,3.4905,0,3.488,3.487,3.4851,3.4851,3.486,3.485,3.4853,3.4857,3.4853,3.485,3.4847,3.4842,3.4838,3.4833,3.4846,3.4864,3.482,3.4848,3.4823,3.4822,3.481,3.481,3.4734,3.4811,3.4811,3.4812,3.4812,0,3.4823,3.4803,3.4827,3.4814,3.4793,3.4813,3.479,3.4796,3.4799,3.4788,3.481,3.4798,3.4818,3.4808,3.4818,3.4796,3.4795,3.4798,3.48,3.4794,3.4793,3.4789,3.4792,3.481,3.481,3.481,3.4811,0,3.4757,3.4773,3.4753,3.4764,3.4767,3.475,3.4759,3.4747,3.4757,3.4742,3.4739,3.4753,3.4742,3.4756,3.4746,3.4753,3.4723,3.4732,3.4722,3.4723,3.4697,3.4698,3.4613,3.4602,3.4688,3.4688,3.4687,0,3.4719,3.4704,3.4714,3.4709,3.4711,3.4702,3.4698,3.4717,3.4712,3.4713,3.4701,3.4693,3.4687,3.4668,3.4677,3.4669,3.4676,3.4647,3.4675,3.4669,3.4673,3.4672,3.467,3.464,3.4639,3.4638,3.4638,0,3.4648,3.4656,3.465,3.4647,3.4642,3.464,3.4639,3.4633,3.4653,3.4646,3.4636,3.4632,3.4623,3.4613,3.4608,3.461,3.4626,3.463,3.4623,3.4615,3.4609,3.461,3.4703,3.4631,3.4631,3.4632,3.4632,3.4632,3.4593,3.4581,3.4586,3.4578,3.458,3.4579,3.4569,3.4577,3.457,3.4564,3.4576,3.4563,3.4565,3.456,3.456,3.4549,3.4562,3.4553,3.455,3.4547,3.4541,3.4613,3.4549,3.4549,3.4549,3.4549,3.455,0,3.452,3.4525,3.4519,3.4518,3.4511,3.453,3.4531,3.4523,3.4512,3.4513,3.4508,3.4495,3.4487,3.4495,3.4487,3.4476,3.4484,3.4474,3.4473,3.4473,3.4532,3.4537,3.4468,3.4468,3.4468,3.4468,3.4468,3.4468,3.4482,3.4462,3.4471,3.4452,3.4457,3.4445,3.4443,3.4442,3.4443,3.4429,3.4423,3.4429,3.4432,3.4425,3.4417,3.442,3.4415,3.4402,3.4406,3.4461,3.4469,3.4476,3.4481,3.4401,3.4401,3.4348,3.4347,3.4347]}]]